Hourly Data Report for September 28, 2021

WINNIPEG THE FORKS
MANITOBA
Current Station Operator: ECCC - MSC

49°53'18.008" N
97°07'46.007" W
230.00 m
5023262
71579
XWN

Download Data

Hourly Data (September 2021)
Hourly Data Report for September 28, 2021
TIME
LST
Temp Definition
°C
Dew Point Definition
°C
Rel Hum Definition
%
Precip. Amount Definition
mm

Wind Dir Definition
10's deg

Wind Spd Definition
km/h
Visibility Definition
km
Stn Press Definition
kPa
Hmdx Definition


Wind Chill Definition


Weather Definition


00:00 16.6 7.5 55 0.0 21 3   97.88     LegendNANA
01:00 17.0 7.5 54 0.0 20 6   97.87     LegendNANA
02:00 16.4 8.0 57 0.0 20 7   97.87     LegendNANA
03:00 15.9 8.4 61 0.0 20 5   97.88     LegendNANA
04:00 14.4 8.2 66 0.0 0 1   97.88     LegendNANA
05:00 13.3 8.1 71 0.0 21 3   97.91     LegendNANA
06:00 13.1 8.5 74 0.0 21 3   97.90     LegendNANA
07:00 13.7 8.8 72 0.0 26 1   97.92     LegendNANA
08:00 14.9 9.3 69 0.0 21 4   97.92     LegendNANA
09:00 17.0 10.4 65 0.0 21 2   97.91     LegendNANA
10:00 20.4 11.4 56 0.0 20 4   97.91     LegendNANA
11:00 22.4 11.6 51 0.0 9 5   97.86     LegendNANA
12:00 24.1 11.9 46 0.0 12 4   97.85 26   LegendNANA
13:00 26.3 11.7 40 0.0 11 4   97.79 28   LegendNANA
14:00 27.9 11.6 36 0.0 9 5   97.74 30   LegendNANA
15:00 28.8 11.2 34 0.0 10 9   97.70 31   LegendNANA
16:00 29.1 11.1 33 0.0 27 3   97.71 31   LegendNANA
17:00 28.7 10.8 33 0.0 11 5   97.71 30   LegendNANA
18:00 26.4 11.7 40 0.0 9 3   97.72 29   LegendNANA
19:00 24.0 12.2 48 0.0 8 3   97.74 26   LegendNANA
20:00 23.2 12.5 51 0.0 9 6   97.76 26   LegendNANA
21:00 22.7 12.8 54 0.0 10 6   97.76 25   LegendNANA
22:00 21.6 12.5 56 0.0 9 3   97.77     LegendNANA
23:00 22.0 11.9 53 0.0 1 2   97.80     LegendNANA

Notes on Data Quality.

Legend

  • E = Estimated
  • M = Missing
  • NA = Not Available*
  • [empty] = Indicates an unobserved value
Date modified: